{"data":{"norad_id":63008,"intl_designator":"2025-032D","name":"STARLINK-11405 [DTC]","alt_names":[],"object_type":"PAYLOAD","status":"ACTIVE","operator":null,"country":"US","launch_date":"2025-02-15","launch_site_code":"AFETR","launch_vehicle":null,"mission":null,"orbit_class":"UNKNOWN","rcs_meters":null,"size_class":null,"mass_kg":null,"dimensions":null,"purposes":["comms"],"wikipedia_slug":null,"has_3d_model":false,"image_url":null,"decayed_at":null,"tle_current":{"epoch":"2026-09-21T19:07:26.228640Z","epoch_age_seconds":53041,"freshness":"FRESH","line1":"1 63008U 25032D   26264.79683135  .00140564  00000+0  10739-2 0  9992","line2":"2 63008  43.0008  93.5155 0001560 261.4174  98.6517 15.70986003 92904","mean_motion":15.70986003,"eccentricity":0.000156,"inclination_deg":43.0008,"raan_deg":93.5155,"arg_perigee_deg":261.4174,"mean_anomaly_deg":98.6517,"bstar":0.0010739,"rev_number":9290,"period_min":91.66217886411,"perigee_km":355.02725248194,"apogee_km":357.12832749641,"semimajor_km":6734.2147899892,"source":"CELESTRAK","updated_at":"2026-09-22T09:00:49.739263Z"}}}